This is the latest recevied weather packets stored in our database for station/object EA3ANS-1. If no packets are shown the sender has not sent any weather packets the latest 10 day(s).
| Time | Temp. | Humidity | Pressure | Rain* | Wind** | Luminosity | Snow |
|---|---|---|---|---|---|---|---|
| 1777756981 | 17.22° C | - | 1019 hPa | 0 mm | 1.79 m/s, 122° | - | - |
| 1777756383 | 17.22° C | - | 1019 hPa | 0 mm | 1.34 m/s, 37° | - | - |
| 1777755771 | 17.22° C | - | 1019 hPa | 0 mm | 1.79 m/s, 65° | - | - |
| 1777755174 | 17.22° C | - | 1018.8 hPa | 0 mm | 2.24 m/s, 48° | - | - |
| 1777754576 | 17.22° C | - | 1018.8 hPa | 0 mm | 2.24 m/s, 118° | - | - |
| 1777753961 | 17.22° C | - | 1018.8 hPa | 0 mm | 1.79 m/s, 83° | - | - |
| 1777753364 | 17.22° C | - | 1018.7 hPa | 0 mm | 1.34 m/s, 79° | - | - |
| 1777752766 | 17.22° C | - | 1018.8 hPa | 0 mm | 1.79 m/s, 96° | - | - |
| 1777752167 | 17.22° C | - | 1018.6 hPa | 0 mm | 0.45 m/s, 69° | - | - |
| 1777751563 | 17.22° C | - | 1018.5 hPa | 0 mm | 2.68 m/s, 42° | - | - |
| 1777750964 | 17.22° C | - | 1018.4 hPa | 0 mm | 2.24 m/s, 118° | - | - |
| 1777750366 | 17.22° C | - | 1018.4 hPa | 0 mm | 1.79 m/s, 83° | - | - |
| 1777749769 | 17.22° C | - | 1018.3 hPa | 0 mm | 1.79 m/s, 105° | - | - |
| 1777749171 | 17.22° C | - | 1018.4 hPa | 0 mm | 1.79 m/s, 97° | - | - |
| 1777748570 | 17.22° C | - | 1018.3 hPa | 0 mm | 2.24 m/s, 107° | - | - |
| 1777747968 | 17.78° C | - | 1018.4 hPa | 0 mm | 2.24 m/s, 46° | - | - |
| 1777747362 | 17.78° C | - | 1018.4 hPa | 0 mm | 1.79 m/s, 87° | - | - |
| 1777746762 | 17.78° C | - | 1018.4 hPa | 0 mm | 1.79 m/s, 52° | - | - |
| 1777746165 | 18.33° C | - | 1018.4 hPa | 0 mm | 1.79 m/s, 69° | - | - |
| 1777745568 | 17.78° C | - | 1018.4 hPa | 0 mm | 0 m/s | - | - |
| 1777744967 | 18.33° C | - | 1018.3 hPa | 0 mm | 1.34 m/s, 89° | - | - |
| 1777744370 | 18.33° C | - | 1017.8 hPa | 0 mm | 2.24 m/s, 100° | - | - |
| 1777743772 | 18.33° C | - | 1017.8 hPa | 0 mm | 2.24 m/s, 153° | - | - |
| 1777743168 | 18.33° C | - | 1018 hPa | 0 mm | 2.68 m/s, 77° | - | - |
| 1777742567 | 18.89° C | - | 1017.9 hPa | 0 mm | 3.13 m/s, 69° | - | - |
* Rain latest hour (hover to see other rain measurements)
** Current wind speed in m/s (hover to see current wind gust speed)